,,Stat6,,Stat2,,Stat8,,Stat9,,Stat10,,Wind1,,Wind1,
time,status,PA1M_AVG,status,PR1M_SUM,status,RH1M_AVG,status,SR1M_AVG,status,TA1M_AVG,status,W1dAve1m,status,W1sAve1m,
2008-09-02, 00:00:00,VALID,917.641,VALID,0,VALID,100,VALID,-0.0169808,VALID,19.607,VALID,136,VALID,0,
2008-09-02, 00:01:00,VALID,917.647,VALID,0,VALID,100,VALID,0,VALID,19.6115,VALID,136,VALID,0,
2008-09-02, 00:02:00,VALID,917.655,VALID,0,VALID,100,VALID,0,VALID,19.604,VALID,136,VALID,0,
2008-09-02, 00:03:00,VALID,917.634,VALID,0,VALID,100,VALID,0,VALID,19.6242,VALID,136,VALID,0,
2008-09-02, 00:04:00,VALID,917.633,VALID,0,VALID,100,VALID,0.0169808,VALID,19.6434,VALID,136,VALID,0,
2008-09-02, 00:05:00,VALID,917.612,VALID,0,VALID,100,VALID,-0.0169808,VALID,19.6634,VALID,136,VALID,0,
2008-09-02, 00:06:00,VALID,917.592,VALID,0,VALID,100,VALID,-0.0509425,VALID,19.6861,VALID,136,VALID,0,
2008-09-02, 00:07:00,VALID,917.581,VALID,0,VALID,100,VALID,-0.0509425,VALID,19.7028,VALID,110,VALID,0,
2008-09-02, 00:08:00,VALID,917.595,VALID,0,VALID,100,VALID,-0.0339617,VALID,19.6763,VALID,54,VALID,0,
2008-09-02, 00:09:00,VALID,917.589,VALID,0,VALID,100,VALID,-0.118866,VALID,19.6641,VALID,54,VALID,0,
2008-09-02, 00:10:00,VALID,917.576,VALID,0,VALID,100,VALID,-0.0849042,VALID,19.6509,VALID,54,VALID,0,
2008-09-02, 00:11:00,VALID,917.551,VALID,0,VALID,100,VALID,-0.0169808,VALID,19.6441,VALID,54,VALID,0,
2008-09-02, 00:12:00,VALID,917.535,VALID,0,VALID,100,VALID,-0.0849042,VALID,19.6639,VALID,54,VALID,0,
2008-09-02, 00:13:00,VALID,917.524,VALID,0,VALID,100,VALID,-0.0679233,VALID,19.6639,VALID,54,VALID,0,
2008-09-02, 00:14:00,VALID,917.509,VALID,0,VALID,100,VALID,-0.0849042,VALID,19.6604,VALID,54,VALID,0,
2008-09-02, 00:15:00,VALID,917.487,VALID,0,VALID,100,VALID,-0.0509425,VALID,19.6669,VALID,48,VALID,0,
2008-09-02, 00:16:00,VALID,917.464,VALID,0,VALID,100,VALID,-0.0679233,VALID,19.6763,VALID,26,VALID,0,
2008-09-02, 00:17:00,VALID,917.426,VALID,0,VALID,100,VALID,-0.0849042,VALID,19.6474,VALID,27,VALID,0,
2008-09-02, 00:18:00,VALID,917.407,VALID,0,VALID,100,VALID,-0.0849042,VALID,19.6409,VALID,26,VALID,0,
2008-09-02, 00:19:00,VALID,917.36,VALID,0,VALID,100,VALID,-0.0849042,VALID,19.6377,VALID,26,VALID,0,
2008-09-02, 00:20:00,VALID,917.335,VALID,0,VALID,100,VALID,-0.0849042,VALID,19.6412,VALID,29,VALID,0,
2008-09-02, 00:21:00,VALID,917.308,VALID,0,VALID,100,VALID,-0.0509425,VALID,19.6481,VALID,29,VALID,0,
2008-09-02, 00:22:00,VALID,917.276,VALID,0,VALID,100,VALID,-0.0509425,VALID,19.6347,VALID,29,VALID,0,
2008-09-02, 00:23:00,VALID,917.25,VALID,0,VALID,100,VALID,-0.0679233,VALID,19.6506,VALID,29,VALID,0,
2008-09-02, 00:24:00,VALID,917.219,VALID,0,VALID,100,VALID,-0.0679233,VALID,19.6798,VALID,28,VALID,0.429324,
2008-09-02, 00:25:00,VALID,917.197,VALID,0,VALID,100,VALID,-0.0679233,VALID,19.6796,VALID,24,VALID,0.593932,
2008-09-02, 00:26:00,VALID,917.176,VALID,0,VALID,100,VALID,-0.0849042,VALID,19.6671,VALID,6,VALID,0.300586,
2008-09-02, 00:27:00,VALID,917.155,VALID,0,VALID,100,VALID,-0.0849042,VALID,19.6606,VALID,6,VALID,0.136628,
2008-09-02, 00:28:00,VALID,917.135,VALID,0,VALID,100,VALID,-0.0679233,VALID,19.6604,VALID,6,VALID,0,
2008-09-02, 00:29:00,VALID,917.11,VALID,0,VALID,100,VALID,-0.0509425,VALID,19.6704,VALID,8,VALID,0.1379,
2008-09-02, 00:30:00,VALID,917.088,VALID,0,VALID,100,VALID,-0.0509425,VALID,19.6701,VALID,28,VALID,0.605569,
2008-09-02, 00:31:00,VALID,917.08,VALID,0,VALID,100,VALID,-0.0169808,VALID,19.6891,VALID,24,VALID,0.802379,
2008-09-02, 00:32:00,VALID,917.049,VALID,0,VALID,100,VALID,-0.0509425,VALID,19.6898,VALID,25,VALID,0.77066,
2008-09-02, 00:33:00,VALID,917.037,VALID,0,VALID,100,VALID,0,VALID,19.6893,VALID,12,VALID,0.807706,
2008-09-02, 00:34:00,VALID,917.029,VALID,0,VALID,100,VALID,-0.0509425,VALID,19.6863,VALID,357,VALID,0.368712,
2008-09-02, 00:35:00,VALID,917.01,VALID,0,VALID,100,VALID,-0.0339617,VALID,19.6733,VALID,345,VALID,0.272372,
2008-09-02, 00:36:00,VALID,916.989,VALID,0,VALID,100,VALID,-0.0339617,VALID,19.6833,VALID,343,VALID,0,
2008-09-02, 00:37:00,VALID,916.997,VALID,0,VALID,100,VALID,-0.101885,VALID,19.6474,VALID,360,VALID,0.469113,
2008-09-02, 00:38:00,VALID,916.991,VALID,0,VALID,100,VALID,-0.0849042,VALID,19.6414,VALID,3,VALID,0.266992,
2008-09-02, 00:39:00,VALID,916.998,VALID,0,VALID,100,VALID,-0.0509425,VALID,19.6441,VALID,12,VALID,0.00273437,
2008-09-02, 00:40:00,VALID,917.003,VALID,0,VALID,100,VALID,-0.0849042,VALID,19.6509,VALID,12,VALID,0,
2008-09-02, 00:41:00,VALID,917.012,VALID,0,VALID,100,VALID,-0.0679233,VALID,19.6409,VALID,12,VALID,0,
2008-09-02, 00:42:00,VALID,917.009,VALID,0,VALID,100,VALID,-0.0849042,VALID,19.6412,VALID,12,VALID,0,
2008-09-02, 00:43:00,VALID,917.015,VALID,0,VALID,100,VALID,-0.0509425,VALID,19.6412,VALID,12,VALID,0,
2008-09-02, 00:44:00,VALID,917.004,VALID,0,VALID,100,VALID,-0.0679233,VALID,19.6509,VALID,13,VALID,0,
2008-09-02, 00:45:00,VALID,916.988,VALID,0,VALID,100,VALID,-0.0509425,VALID,19.6604,VALID,12,VALID,0,
2008-09-02, 00:46:00,VALID,916.979,VALID,0,VALID,100,VALID,-0.0509425,VALID,19.6831,VALID,1,VALID,0,
2008-09-02, 00:47:00,VALID,916.983,VALID,0,VALID,100,VALID,-0.0849042,VALID,19.6958,VALID,360,VALID,0,
2008-09-02, 00:48:00,VALID,916.971,VALID,0,VALID,100,VALID,-0.0849042,VALID,19.6993,VALID,360,VALID,0,
2008-09-02, 00:49:00,VALID,916.954,VALID,0,VALID,100,VALID,-0.0339617,VALID,19.6993,VALID,360,VALID,0,
2008-09-02, 00:50:00,VALID,916.964,VALID,0,VALID,100,VALID,-0.0339617,VALID,19.7058,VALID,360,VALID,0,
2008-09-02, 00:51:00,VALID,916.974,VALID,0,VALID,100,VALID,0.0339617,VALID,19.7243,VALID,360,VALID,0,
2008-09-02, 00:52:00,VALID,916.986,VALID,0,VALID,100,VALID,0.0339617,VALID,19.7497,VALID,360,VALID,0,
2008-09-02, 00:53:00,VALID,916.999,VALID,0,VALID,100,VALID,0.0679233,VALID,19.7887,VALID,360,VALID,0,
2008-09-02, 00:54:00,VALID,917.013,VALID,0,VALID,100,VALID,0,VALID,19.8024,VALID,1,VALID,0,
2008-09-02, 00:55:00,VALID,917.008,VALID,0,VALID,100,VALID,0.0339617,VALID,19.8311,VALID,360,VALID,0,
2008-09-02, 00:56:00,VALID,917.016,VALID,0,VALID,100,VALID,0.0169808,VALID,19.8441,VALID,360,VALID,0,
2008-09-02, 00:57:00,VALID,917.022,VALID,0,VALID,100,VALID,0.0679233,VALID,19.8406,VALID,1,VALID,0,
2008-09-02, 00:58:00,VALID,917.031,VALID,0,VALID,100,VALID,0.0679233,VALID,19.8338,VALID,1,VALID,0,
2008-09-02, 00:59:00,VALID,917.033,VALID,0,VALID,100,VALID,0.0509425,VALID,19.8211,VALID,1,VALID,0,
2008-09-02, 01:00:00,VALID,917.025,VALID,0,VALID,100,VALID,0.0339617,VALID,19.8144,VALID,1,VALID,0,
2008-09-02, 01:01:00,VALID,917.028,VALID,0,VALID,100,VALID,0.0679233,VALID,19.8111,VALID,1,VALID,0,
2008-09-02, 01:02:00,VALID,917.025,VALID,0,VALID,100,VALID,0.101885,VALID,19.7627,VALID,1,VALID,0,
2008-09-02, 01:03:00,VALID,917.027,VALID,0,VALID,100,VALID,0.0679233,VALID,19.7367,VALID,1,VALID,0,
2008-09-02, 01:04:00,VALID,917.034,VALID,0,VALID,100,VALID,0.0509425,VALID,19.7103,VALID,1,VALID,0,
2008-09-02, 01:05:00,VALID,917.016,VALID,0,VALID,100,VALID,0.0849042,VALID,19.6848,VALID,1,VALID,0,
2008-09-02, 01:06:00,VALID,917.01,VALID,0,VALID,100,VALID,-0.0339617,VALID,19.6604,VALID,1,VALID,0,
2008-09-02, 01:07:00,VALID,917.008,VALID,0,VALID,100,VALID,-0.0679233,VALID,19.6609,VALID,1,VALID,0,
2008-09-02, 01:08:00,VALID,916.996,VALID,0,VALID,100,VALID,-0.0679233,VALID,19.6539,VALID,1,VALID,0,
2008-09-02, 01:09:00,VALID,916.987,VALID,0,VALID,100,VALID,-0.118866,VALID,19.6868,VALID,1,VALID,0,
2008-09-02, 01:10:00,VALID,916.975,VALID,0,VALID,100,VALID,-0.0509425,VALID,19.6768,VALID,1,VALID,0,
2008-09-02, 01:11:00,VALID,916.979,VALID,0,VALID,100,VALID,-0.0849042,VALID,19.6671,VALID,1,VALID,0,
2008-09-02, 01:12:00,VALID,916.98,VALID,0,VALID,100,VALID,-0.0509425,VALID,19.6733,VALID,1,VALID,0,
2008-09-02, 01:13:00,VALID,916.975,VALID,0,VALID,100,VALID,-0.0509425,VALID,19.6963,VALID,1,VALID,0,
2008-09-02, 01:14:00,VALID,916.968,VALID,0,VALID,100,VALID,-0.101885,VALID,19.6896,VALID,1,VALID,0,
2008-09-02, 01:15:00,VALID,916.957,VALID,0,VALID,100,VALID,-0.0849042,VALID,19.6701,VALID,1,VALID,0,
2008-09-02, 01:16:00,VALID,916.941,VALID,0,VALID,100,VALID,-0.0849042,VALID,19.6704,VALID,1,VALID,0,
2008-09-02, 01:17:00,VALID,916.927,VALID,0,VALID,100,VALID,-0.101885,VALID,19.6768,VALID,1,VALID,0.159979,
2008-09-02, 01:18:00,VALID,916.899,VALID,0,VALID,100,VALID,-0.101885,VALID,19.6773,VALID,1,VALID,0,
2008-09-02, 01:19:00,VALID,916.878,VALID,0,VALID,100,VALID,-0.101885,VALID,19.6736,VALID,1,VALID,0,
2008-09-02, 01:20:00,VALID,916.87,VALID,0,VALID,100,VALID,-0.101885,VALID,19.6871,VALID,1,VALID,0,
2008-09-02, 01:21:00,VALID,916.866,VALID,0,VALID,100,VALID,-0.0339617,VALID,19.6926,VALID,22,VALID,0,
2008-09-02, 01:22:00,VALID,916.849,VALID,0,VALID,100,VALID,-0.0169808,VALID,19.6918,VALID,25,VALID,0,
2008-09-02, 01:23:00,VALID,916.822,VALID,0,VALID,100,VALID,0,VALID,19.7248,VALID,25,VALID,0,
2008-09-02, 01:24:00,VALID,916.814,VALID,0,VALID,100,VALID,-0.0169808,VALID,19.7405,VALID,25,VALID,0,
2008-09-02, 01:25:00,VALID,916.808,VALID,0,VALID,100,VALID,0,VALID,19.73,VALID,30,VALID,0,
2008-09-02, 01:26:00,VALID,916.796,VALID,0,VALID,100,VALID,0,VALID,19.714,VALID,28,VALID,0,
2008-09-02, 01:27:00,VALID,916.791,VALID,0,VALID,100,VALID,0,VALID,19.7078,VALID,18,VALID,0,
2008-09-02, 01:28:00,VALID,916.793,VALID,0,VALID,100,VALID,0.0509425,VALID,19.6921,VALID,7,VALID,0,
2008-09-02, 01:29:00,VALID,916.784,VALID,0,VALID,100,VALID,0.0169808,VALID,19.6654,VALID,11,VALID,0,
2008-09-02, 01:30:00,VALID,916.802,VALID,0,VALID,100,VALID,0.0169808,VALID,19.6559,VALID,22,VALID,0,
2008-09-02, 01:31:00,VALID,916.801,VALID,0,VALID,100,VALID,0.0169808,VALID,19.6459,VALID,29,VALID,0,
2008-09-02, 01:32:00,VALID,916.802,VALID,0,VALID,100,VALID,0.0169808,VALID,19.6432,VALID,29,VALID,0,
2008-09-02, 01:33:00,VALID,916.791,VALID,0,VALID,100,VALID,0,VALID,19.6364,VALID,29,VALID,0,
2008-09-02, 01:34:00,VALID,916.792,VALID,0,VALID,100,VALID,0,VALID,19.6524,VALID,33,VALID,0,
2008-09-02, 01:35:00,VALID,916.775,VALID,0,VALID,100,VALID,0,VALID,19.6721,VALID,35,VALID,0,
2008-09-02, 01:36:00,VALID,916.752,VALID,0,VALID,100,VALID,-0.0339617,VALID,19.6566,VALID,35,VALID,0,
2008-09-02, 01:37:00,VALID,916.736,VALID,0,VALID,100,VALID,-0.0849042,VALID,19.6571,VALID,35,VALID,0,
2008-09-02, 01:38:00,VALID,916.71,VALID,0,VALID,100,VALID,-0.0509425,VALID,19.6731,VALID,35,VALID,0,
2008-09-02, 01:39:00,VALID,916.699,VALID,0,VALID,100,VALID,-0.0509425,VALID,19.6731,VALID,15,VALID,0,
2008-09-02, 01:40:00,VALID,916.683,VALID,0,VALID,100,VALID,-0.0849042,VALID,19.6604,VALID,11,VALID,0,
2008-09-02, 01:41:00,VALID,916.66,VALID,0,VALID,100,VALID,-0.0509425,VALID,19.6644,VALID,7,VALID,0.239901,
2008-09-02, 01:42:00,VALID,916.634,VALID,0,VALID,100,VALID,-0.101885,VALID,19.6474,VALID,21,VALID,0.118902,
2008-09-02, 01:43:00,VALID,916.615,VALID,0,VALID,100,VALID,-0.0679233,VALID,19.6474,VALID,16,VALID,0.251953,
2008-09-02, 01:44:00,VALID,916.588,VALID,0,VALID,100,VALID,-0.101885,VALID,19.6636,VALID,5,VALID,0.600038,
2008-09-02, 01:45:00,VALID,916.569,VALID,0,VALID,100,VALID,-0.0679233,VALID,19.6604,VALID,357,VALID,0.122024,
2008-09-02, 01:46:00,VALID,916.568,VALID,0,VALID,100,VALID,-0.0509425,VALID,19.6604,VALID,357,VALID,0,
2008-09-02, 01:47:00,VALID,916.581,VALID,0,VALID,100,VALID,-0.0849042,VALID,19.6766,VALID,357,VALID,0,
2008-09-02, 01:48:00,VALID,916.584,VALID,0,VALID,100,VALID,-0.0509425,VALID,19.6761,VALID,357,VALID,0,
2008-09-02, 01:49:00,VALID,916.596,VALID,0,VALID,100,VALID,0,VALID,19.7155,VALID,357,VALID,0,
2008-09-02, 01:50:00,VALID,916.613,VALID,0,VALID,100,VALID,-0.0509425,VALID,19.725,VALID,357,VALID,0,
2008-09-02, 01:51:00,VALID,916.624,VALID,0,VALID,100,VALID,-0.0339617,VALID,19.715,VALID,357,VALID,0,
2008-09-02, 01:52:00,VALID,916.61,VALID,0,VALID,100,VALID,-0.0169808,VALID,19.7155,VALID,337,VALID,0,
2008-09-02, 01:53:00,VALID,916.599,VALID,0,VALID,100,VALID,-0.0339617,VALID,19.6928,VALID,316,VALID,0,
2008-09-02, 01:54:00,VALID,916.587,VALID,0,VALID,100,VALID,-0.0169808,VALID,19.6926,VALID,309,VALID,0.200457,
2008-09-02, 01:55:00,VALID,916.582,VALID,0,VALID,100,VALID,-0.0509425,VALID,19.6569,VALID,309,VALID,0,
2008-09-02, 01:56:00,VALID,916.588,VALID,0,VALID,100,VALID,-0.0679233,VALID,19.6374,VALID,309,VALID,0,
2008-09-02, 01:57:00,VALID,916.583,VALID,0,VALID,100,VALID,-0.0679233,VALID,19.6279,VALID,309,VALID,0,
2008-09-02, 01:58:00,VALID,916.575,VALID,0,VALID,100,VALID,-0.0169808,VALID,19.6279,VALID,309,VALID,0,
2008-09-02, 01:59:00,VALID,916.579,VALID,0,VALID,100,VALID,-0.0679233,VALID,19.6441,VALID,309,VALID,0,
2008-09-02, 02:00:00,VALID,916.571,VALID,0,VALID,100,VALID,-0.0679233,VALID,19.6569,VALID,309,VALID,0,
2008-09-02, 02:01:00,VALID,916.556,VALID,0,VALID,100,VALID,-0.101885,VALID,19.6539,VALID,309,VALID,0,
2008-09-02, 02:02:00,VALID,916.532,VALID,0,VALID,100,VALID,-0.0679233,VALID,19.6407,VALID,309,VALID,0,
2008-09-02, 02:03:00,VALID,916.515,VALID,0,VALID,100,VALID,-0.0679233,VALID,19.6374,VALID,309,VALID,0,
2008-09-02, 02:04:00,VALID,916.508,VALID,0,VALID,100,VALID,-0.0509425,VALID,19.6439,VALID,309,VALID,0,
2008-09-02, 02:05:00,VALID,916.479,VALID,0,VALID,100,VALID,-0.0509425,VALID,19.6247,VALID,309,VALID,0,
2008-09-02, 02:06:00,VALID,916.458,VALID,0,VALID,100,VALID,-0.0169808,VALID,19.6279,VALID,309,VALID,0,
2008-09-02, 02:07:00,VALID,916.455,VALID,0,VALID,100,VALID,-0.0509425,VALID,19.6147,VALID,309,VALID,0,
2008-09-02, 02:08:00,VALID,916.467,VALID,0,VALID,100,VALID,-0.0339617,VALID,19.6179,VALID,309,VALID,0,
2008-09-02, 02:09:00,VALID,916.458,VALID,0,VALID,100,VALID,-0.0169808,VALID,19.6274,VALID,309,VALID,0,
2008-09-02, 02:10:00,VALID,916.459,VALID,0,VALID,100,VALID,-0.0169808,VALID,19.6604,VALID,309,VALID,0,
2008-09-02, 02:11:00,VALID,916.452,VALID,0,VALID,100,VALID,-0.0339617,VALID,19.6793,VALID,309,VALID,0,
2008-09-02, 02:12:00,VALID,916.449,VALID,0,VALID,100,VALID,-0.0169808,VALID,19.6991,VALID,309,VALID,0,
2008-09-02, 02:13:00,VALID,916.437,VALID,0,VALID,100,VALID,-0.0509425,VALID,19.6956,VALID,309,VALID,0,
2008-09-02, 02:14:00,VALID,916.419,VALID,0,VALID,100,VALID,-0.0679233,VALID,19.7053,VALID,309,VALID,0,
2008-09-02, 02:15:00,VALID,916.408,VALID,0,VALID,100,VALID,-0.0509425,VALID,19.7253,VALID,309,VALID,0,
2008-09-02, 02:16:00,VALID,916.394,VALID,0,VALID,100,VALID,-0.0339617,VALID,19.7575,VALID,309,VALID,0,
2008-09-02, 02:17:00,VALID,916.367,VALID,0,VALID,100,VALID,-0.0339617,VALID,19.7704,VALID,309,VALID,0,
2008-09-02, 02:18:00,VALID,916.362,VALID,0,VALID,100,VALID,-0.0169808,VALID,19.748,VALID,309,VALID,0,
2008-09-02, 02:19:00,VALID,916.367,VALID,0,VALID,100,VALID,0,VALID,19.7447,VALID,309,VALID,0,
2008-09-02, 02:20:00,VALID,916.381,VALID,0,VALID,100,VALID,-0.0339617,VALID,19.7445,VALID,309,VALID,0,
2008-09-02, 02:21:00,VALID,916.371,VALID,0,VALID,100,VALID,-0.0169808,VALID,19.7337,VALID,309,VALID,0,
2008-09-02, 02:22:00,VALID,916.376,VALID,0,VALID,100,VALID,0.0339617,VALID,19.7432,VALID,309,VALID,0,
2008-09-02, 02:23:00,VALID,916.377,VALID,0,VALID,100,VALID,0.0339617,VALID,19.74,VALID,309,VALID,0,
2008-09-02, 02:24:00,VALID,916.358,VALID,0,VALID,100,VALID,0.0679233,VALID,19.7268,VALID,309,VALID,0,
2008-09-02, 02:25:00,VALID,916.375,VALID,0,VALID,100,VALID,0.0509425,VALID,19.724,VALID,309,VALID,0,
2008-09-02, 02:26:00,VALID,916.386,VALID,0,VALID,100,VALID,0.0339617,VALID,19.7138,VALID,309,VALID,0,
2008-09-02, 02:27:00,VALID,916.386,VALID,0,VALID,100,VALID,0.0339617,VALID,19.7113,VALID,309,VALID,0,
2008-09-02, 02:28:00,VALID,916.397,VALID,0,VALID,100,VALID,0.0849042,VALID,19.6811,VALID,309,VALID,0,
2008-09-02, 02:29:00,VALID,916.411,VALID,0,VALID,100,VALID,0.0849042,VALID,19.6846,VALID,309,VALID,0,
2008-09-02, 02:30:00,VALID,916.434,VALID,0,VALID,100,VALID,0.101885,VALID,19.6489,VALID,309,VALID,0,
2008-09-02, 02:31:00,VALID,916.473,VALID,0,VALID,100,VALID,0.0509425,VALID,19.6364,VALID,309,VALID,0,
2008-09-02, 02:32:00,VALID,916.477,VALID,0,VALID,100,VALID,0,VALID,19.6329,VALID,309,VALID,0,
2008-09-02, 02:33:00,VALID,916.494,VALID,0,VALID,100,VALID,0.0679233,VALID,19.6264,VALID,309,VALID,0,
2008-09-02, 02:34:00,VALID,916.498,VALID,0,VALID,100,VALID,0.0849042,VALID,19.6297,VALID,309,VALID,0,
2008-09-02, 02:35:00,VALID,916.498,VALID,0,VALID,100,VALID,0.0339617,VALID,19.6427,VALID,309,VALID,0,
2008-09-02, 02:36:00,VALID,916.502,VALID,0,VALID,100,VALID,0,VALID,19.6566,VALID,309,VALID,0,
2008-09-02, 02:37:00,VALID,916.486,VALID,0,VALID,100,VALID,-0.0339617,VALID,19.6534,VALID,309,VALID,0,
2008-09-02, 02:38:00,VALID,916.483,VALID,0,VALID,100,VALID,-0.0849042,VALID,19.6701,VALID,309,VALID,0,
2008-09-02, 02:39:00,VALID,916.473,VALID,0,VALID,100,VALID,-0.0339617,VALID,19.6669,VALID,309,VALID,0,
2008-09-02, 02:40:00,VALID,916.465,VALID,0,VALID,100,VALID,-0.0679233,VALID,19.6766,VALID,309,VALID,0,
2008-09-02, 02:41:00,VALID,916.455,VALID,0,VALID,100,VALID,-0.0339617,VALID,19.6796,VALID,309,VALID,0,
2008-09-02, 02:42:00,VALID,916.455,VALID,0,VALID,100,VALID,-0.0339617,VALID,19.6831,VALID,309,VALID,0,
2008-09-02, 02:43:00,VALID,916.448,VALID,0,VALID,100,VALID,-0.0169808,VALID,19.6831,VALID,276,VALID,0,
2008-09-02, 02:44:00,VALID,916.451,VALID,0,VALID,100,VALID,-0.101885,VALID,19.6701,VALID,192,VALID,0,
2008-09-02, 02:45:00,VALID,916.46,VALID,0,VALID,100,VALID,-0.0339617,VALID,19.6831,VALID,189,VALID,0,
2008-09-02, 02:46:00,VALID,916.457,VALID,0,VALID,100,VALID,-0.0509425,VALID,19.6898,VALID,189,VALID,0,
2008-09-02, 02:47:00,VALID,916.444,VALID,0,VALID,100,VALID,-0.0679233,VALID,19.6896,VALID,189,VALID,0,
2008-09-02, 02:48:00,VALID,916.454,VALID,0.2,VALID,100,VALID,-0.0509425,VALID,19.6863,VALID,189,VALID,0,
2008-09-02, 02:49:00,VALID,916.446,VALID,0,VALID,100,VALID,-0.0849042,VALID,19.6833,VALID,189,VALID,0,
2008-09-02, 02:50:00,VALID,916.457,VALID,0,VALID,100,VALID,-0.0849042,VALID,19.6634,VALID,200,VALID,0,
2008-09-02, 02:51:00,VALID,916.455,VALID,0,VALID,100,VALID,-0.0169808,VALID,19.6733,VALID,212,VALID,0,
2008-09-02, 02:52:00,VALID,916.461,VALID,0,VALID,100,VALID,-0.0169808,VALID,19.6666,VALID,212,VALID,0,
2008-09-02, 02:53:00,VALID,916.464,VALID,0,VALID,100,VALID,-0.0169808,VALID,19.6634,VALID,212,VALID,0,
2008-09-02, 02:54:00,VALID,916.467,VALID,0,VALID,100,VALID,-0.0849042,VALID,19.6803,VALID,212,VALID,0,
2008-09-02, 02:55:00,VALID,916.462,VALID,0,VALID,100,VALID,-0.101885,VALID,19.6863,VALID,212,VALID,0,
2008-09-02, 02:56:00,VALID,916.464,VALID,0,VALID,100,VALID,-0.0339617,VALID,19.6896,VALID,210,VALID,0,
2008-09-02, 02:57:00,VALID,916.459,VALID,0,VALID,100,VALID,-0.0849042,VALID,19.6701,VALID,200,VALID,0,
2008-09-02, 02:58:00,VALID,916.454,VALID,0,VALID,100,VALID,-0.0679233,VALID,19.6504,VALID,200,VALID,0,
2008-09-02, 02:59:00,VALID,916.429,VALID,0,VALID,100,VALID,-0.0849042,VALID,19.6733,VALID,200,VALID,0,
2008-09-02, 03:00:00,VALID,916.425,VALID,0,VALID,100,VALID,-0.0849042,VALID,19.6863,VALID,200,VALID,0,
2008-09-02, 03:01:00,VALID,916.415,VALID,0,VALID,100,VALID,-0.0849042,VALID,19.7058,VALID,200,VALID,0,
2008-09-02, 03:02:00,VALID,916.404,VALID,0,VALID,100,VALID,-0.0849042,VALID,19.7318,VALID,200,VALID,0,
2008-09-02, 03:03:00,VALID,916.406,VALID,0,VALID,100,VALID,-0.101885,VALID,19.738,VALID,200,VALID,0,
2008-09-02, 03:04:00,VALID,916.391,VALID,0,VALID,100,VALID,-0.0849042,VALID,19.7253,VALID,200,VALID,0,
2008-09-02, 03:05:00,VALID,916.4,VALID,0,VALID,100,VALID,-0.0679233,VALID,19.7188,VALID,200,VALID,0,
2008-09-02, 03:06:00,VALID,916.391,VALID,0,VALID,100,VALID,-0.0849042,VALID,19.7218,VALID,200,VALID,0,
2008-09-02, 03:07:00,VALID,916.4,VALID,0,VALID,100,VALID,-0.0679233,VALID,19.7318,VALID,200,VALID,0,
2008-09-02, 03:08:00,VALID,916.384,VALID,0,VALID,100,VALID,-0.0679233,VALID,19.738,VALID,200,VALID,0,
2008-09-02, 03:09:00,VALID,916.4,VALID,0,VALID,100,VALID,-0.0679233,VALID,19.7318,VALID,200,VALID,0,
2008-09-02, 03:10:00,VALID,916.392,VALID,0,VALID,100,VALID,-0.0679233,VALID,19.7023,VALID,200,VALID,0,
2008-09-02, 03:11:00,VALID,916.393,VALID,0,VALID,100,VALID,-0.0339617,VALID,19.6733,VALID,200,VALID,0,
2008-09-02, 03:12:00,VALID,916.387,VALID,0,VALID,100,VALID,-0.0339617,VALID,19.6634,VALID,200,VALID,0,
2008-09-02, 03:13:00,VALID,916.366,VALID,0,VALID,100,VALID,-0.0849042,VALID,19.6441,VALID,200,VALID,0,
2008-09-02, 03:14:00,VALID,916.354,VALID,0,VALID,100,VALID,-0.118866,VALID,19.6115,VALID,200,VALID,0,
2008-09-02, 03:15:00,VALID,916.34,VALID,0,VALID,100,VALID,-0.0509425,VALID,19.5857,VALID,200,VALID,0,
2008-09-02, 03:16:00,VALID,916.323,VALID,0,VALID,100,VALID,-0.0679233,VALID,19.573,VALID,200,VALID,0,
2008-09-02, 03:17:00,VALID,916.301,VALID,0,VALID,100,VALID,-0.0849042,VALID,19.5563,VALID,200,VALID,0,
2008-09-02, 03:18:00,VALID,916.299,VALID,0,VALID,100,VALID,-0.0849042,VALID,19.5565,VALID,200,VALID,0,
2008-09-02, 03:19:00,VALID,916.281,VALID,0,VALID,100,VALID,-0.0679233,VALID,19.5598,VALID,200,VALID,0,
2008-09-02, 03:20:00,VALID,916.267,VALID,0,VALID,100,VALID,-0.0679233,VALID,19.5595,VALID,200,VALID,0,
2008-09-02, 03:21:00,VALID,916.258,VALID,0,VALID,100,VALID,-0.0679233,VALID,19.56,VALID,200,VALID,0,
2008-09-02, 03:22:00,VALID,916.245,VALID,0,VALID,100,VALID,-0.0169808,VALID,19.566,VALID,200,VALID,0,
2008-09-02, 03:23:00,VALID,916.238,VALID,0,VALID,100,VALID,-0.0509425,VALID,19.5825,VALID,200,VALID,0,
2008-09-02, 03:24:00,VALID,916.213,VALID,0,VALID,100,VALID,-0.0339617,VALID,19.5725,VALID,200,VALID,0,
2008-09-02, 03:25:00,VALID,916.212,VALID,0,VALID,100,VALID,-0.0679233,VALID,19.5857,VALID,200,VALID,0,
2008-09-02, 03:26:00,VALID,916.199,VALID,0,VALID,100,VALID,-0.0509425,VALID,19.592,VALID,200,VALID,0,
2008-09-02, 03:27:00,VALID,916.181,VALID,0,VALID,100,VALID,-0.0509425,VALID,19.5987,VALID,200,VALID,0,
2008-09-02, 03:28:00,VALID,916.183,VALID,0,VALID,100,VALID,-0.0339617,VALID,19.605,VALID,200,VALID,0,
2008-09-02, 03:29:00,VALID,916.163,VALID,0,VALID,100,VALID,-0.0849042,VALID,19.6085,VALID,200,VALID,0,
2008-09-02, 03:30:00,VALID,916.151,VALID,0,VALID,100,VALID,-0.0849042,VALID,19.6055,VALID,200,VALID,0,
2008-09-02, 03:31:00,VALID,916.151,VALID,0,VALID,100,VALID,-0.0679233,VALID,19.5955,VALID,200,VALID,0,
2008-09-02, 03:32:00,VALID,916.148,VALID,0,VALID,100,VALID,-0.0169808,VALID,19.595,VALID,200,VALID,0,
2008-09-02, 03:33:00,VALID,916.149,VALID,0,VALID,100,VALID,-0.0679233,VALID,19.5985,VALID,200,VALID,0,
2008-09-02, 03:34:00,VALID,916.137,VALID,0,VALID,100,VALID,-0.0339617,VALID,19.595,VALID,200,VALID,0,
2008-09-02, 03:35:00,VALID,916.138,VALID,0,VALID,100,VALID,-0.0679233,VALID,19.592,VALID,200,VALID,0,
2008-09-02, 03:36:00,VALID,916.146,VALID,0,VALID,100,VALID,-0.0679233,VALID,19.5987,VALID,200,VALID,0,
2008-09-02, 03:37:00,VALID,916.119,VALID,0,VALID,100,VALID,-0.0679233,VALID,19.5857,VALID,200,VALID,0,
2008-09-02, 03:38:00,VALID,916.111,VALID,0,VALID,100,VALID,-0.0339617,VALID,19.562,VALID,200,VALID,0,
2008-09-02, 03:39:00,VALID,916.108,VALID,0,VALID,100,VALID,-0.0509425,VALID,19.566,VALID,200,VALID,0,
2008-09-02, 03:40:00,VALID,916.102,VALID,0,VALID,100,VALID,-0.0339617,VALID,19.5463,VALID,200,VALID,0,
2008-09-02, 03:41:00,VALID,916.096,VALID,0,VALID,100,VALID,-0.0679233,VALID,19.5433,VALID,200,VALID,0,
2008-09-02, 03:42:00,VALID,916.093,VALID,0,VALID,100,VALID,-0.0679233,VALID,19.5531,VALID,200,VALID,0,
2008-09-02, 03:43:00,VALID,916.079,VALID,0,VALID,100,VALID,-0.0509425,VALID,19.5695,VALID,200,VALID,0,
2008-09-02, 03:44:00,VALID,916.075,VALID,0,VALID,100,VALID,-0.0849042,VALID,19.5658,VALID,200,VALID,0,
2008-09-02, 03:45:00,VALID,916.081,VALID,0,VALID,100,VALID,-0.0339617,VALID,19.588,VALID,200,VALID,0,
2008-09-02, 03:46:00,VALID,916.076,VALID,0,VALID,100,VALID,-0.0509425,VALID,19.6145,VALID,200,VALID,0,
2008-09-02, 03:47:00,VALID,916.078,VALID,0,VALID,100,VALID,-0.0849042,VALID,19.6147,VALID,200,VALID,0,
2008-09-02, 03:48:00,VALID,916.07,VALID,0,VALID,100,VALID,-0.0849042,VALID,19.5922,VALID,200,VALID,0,
2008-09-02, 03:49:00,VALID,916.069,VALID,0,VALID,100,VALID,-0.0849042,VALID,19.5887,VALID,200,VALID,0,
2008-09-02, 03:50:00,VALID,916.062,VALID,0,VALID,100,VALID,-0.0679233,VALID,19.592,VALID,200,VALID,0,